When you browse on this site, cookies collect data to enhance your experience and personalize the content and advertising you see.
Visit our Privacy Policy to learn more. By continuing to use the site, you agree to this use of cookies and data.
  • în România
  • Lista ţărilor
  • Pe 7 zile
  • Temperatura apei
  • Meteo pe hartă
  • Widget-uri
  • user-avatar
    Intrare

    Meteo pe oră la Kanye

    Astăzi, 22 Februarie, Sâmbătă

    Timp Temperatura Precipitaţii Vânt Presiune Umiditate
    00:00 +21°C° 0 mm 2 m/s 651 mmHg 69%
    01:00 +21°C° 0 mm 2 m/s 650 mmHg 70%
    02:00 +21°C° 0 mm 2 m/s 650 mmHg 76%
    03:00 +21°C° 0 mm 2 m/s 650 mmHg 77%
    04:00 +21°C° 0 mm 2 m/s 650 mmHg 79%
    05:00 +21°C° 0 mm 1 m/s 650 mmHg 81%
    06:00 +23°C° 0 mm 2 m/s 650 mmHg 76%
    07:00 +24°C° 0 mm 2 m/s 651 mmHg 71%
    08:00 +24°C° 0 mm 3 m/s 652 mmHg 66%
    09:00 +27°C° 0 mm 3 m/s 652 mmHg 58%
    10:00 +29°C° 0 mm 3 m/s 652 mmHg 50%
    11:00 +31°C° 0 mm 3 m/s 653 mmHg 42%
    12:00 +30°C° 0.1 mm 3 m/s 652 mmHg 44%
    13:00 +30°C° 0.1 mm 3 m/s 651 mmHg 46%
    14:00 +32°C° 0 mm 4 m/s 651 mmHg 40%
    15:00 +30°C° 0.2 mm 3 m/s 650 mmHg 42%
    16:00 +30°C° 0.2 mm 3 m/s 650 mmHg 43%
    17:00 +30°C° 0.2 mm 2 m/s 649 mmHg 45%
    18:00 +28°C° 0.2 mm 2 m/s 649 mmHg 51%
    19:00 +26°C° 0.2 mm 2 m/s 649 mmHg 58%
    20:00 +24°C° 0.2 mm 3 m/s 649 mmHg 65%
    21:00 +23°C° 0.6 mm 2 m/s 650 mmHg 70%
    22:00 +21°C° 0.6 mm 2 m/s 650 mmHg 75%
    23:00 +21°C° 0.6 mm 1 m/s 650 mmHg 80%

    Mâine, 23 Februarie, Duminică

    Timp Temperatura Precipitaţii Vânt Presiune Umiditate
    00:00 +21°C° 0.1 mm 1 m/s 650 mmHg 79%
    01:00 +21°C° 0.1 mm 1 m/s 650 mmHg 79%
    02:00 +21°C° 0.1 mm 1 m/s 649 mmHg 79%
    03:00 +21°C° 0.1 mm 1 m/s 649 mmHg 79%
    04:00 +21°C° 0.1 mm 1 m/s 649 mmHg 80%
    05:00 +21°C° 0.1 mm 1 m/s 649 mmHg 80%
    06:00 +21°C° 0 mm 1 m/s 649 mmHg 78%
    07:00 +22°C° 0 mm 1 m/s 650 mmHg 76%
    08:00 +22°C° 0 mm 1 m/s 651 mmHg 74%
    09:00 +23°C° 0 mm 2 m/s 651 mmHg 69%
    10:00 +24°C° 0 mm 2 m/s 651 mmHg 64%
    11:00 +26°C° 0 mm 3 m/s 651 mmHg 59%
    12:00 +25°C° 0.2 mm 3 m/s 651 mmHg 61%
    13:00 +25°C° 0.2 mm 3 m/s 650 mmHg 62%
    14:00 +25°C° 0.2 mm 3 m/s 649 mmHg 64%
    15:00 +26°C° 0.1 mm 3 m/s 649 mmHg 59%
    16:00 +26°C° 0.1 mm 3 m/s 649 mmHg 55%
    17:00 +27°C° 0.1 mm 3 m/s 649 mmHg 50%
    18:00 +26°C° 0 mm 4 m/s 650 mmHg 55%
    19:00 +23°C° 0 mm 5 m/s 650 mmHg 59%
    20:00 +22°C° 0 mm 6 m/s 650 mmHg 64%
    21:00 +21°C° 0 mm 6 m/s 651 mmHg 69%
    22:00 +20°C° 0 mm 7 m/s 651 mmHg 75%
    23:00 +18°C° 0 mm 8 m/s 651 mmHg 81%

    Poimâine, 24 Februarie, Luni

    Timp Temperatura Precipitaţii Vânt Presiune Umiditate
    00:00 +18°C° 0.1 mm 8 m/s 651 mmHg 83%
    01:00 +18°C° 0.1 mm 7 m/s 651 mmHg 84%
    02:00 +18°C° 0.1 mm 7 m/s 651 mmHg 86%
    03:00 +17°C° 0.1 mm 7 m/s 651 mmHg 86%
    04:00 +17°C° 0.1 mm 7 m/s 651 mmHg 86%
    05:00 +17°C° 0.1 mm 7 m/s 651 mmHg 86%
    06:00 +17°C° 0 mm 7 m/s 652 mmHg 85%
    07:00 +17°C° 0 mm 6 m/s 652 mmHg 84%
    08:00 +17°C° 0 mm 6 m/s 652 mmHg 83%
    09:00 +17°C° 0 mm 6 m/s 653 mmHg 80%
    10:00 +19°C° 0 mm 6 m/s 653 mmHg 78%
    11:00 +19°C° 0 mm 6 m/s 653 mmHg 75%
    12:00 +21°C° 0 mm 6 m/s 653 mmHg 68%
    13:00 +22°C° 0 mm 6 m/s 653 mmHg 60%
    14:00 +24°C° 0 mm 6 m/s 653 mmHg 53%
    15:00 +25°C° 0 mm 5 m/s 653 mmHg 51%
    16:00 +25°C° 0 mm 5 m/s 653 mmHg 50%
    17:00 +26°C° 0 mm 5 m/s 653 mmHg 48%
    18:00 +23°C° 0 mm 4 m/s 652 mmHg 54%
    19:00 +21°C° 0 mm 4 m/s 652 mmHg 60%
    20:00 +19°C° 0 mm 3 m/s 652 mmHg 66%
    21:00 +18°C° 0 mm 3 m/s 652 mmHg 69%
    22:00 +17°C° 0 mm 3 m/s 652 mmHg 72%
    23:00 +16°C° 0 mm 3 m/s 652 mmHg 74%

    25 Februarie, Marţi

    Timp Temperatura Precipitaţii Vânt Presiune Umiditate
    00:00 +16°C° 0 mm 3 m/s 652 mmHg 77%
    01:00 +15°C° 0 mm 2 m/s 651 mmHg 79%
    02:00 +15°C° 0 mm 2 m/s 651 mmHg 82%
    03:00 +14°C° 0 mm 2 m/s 651 mmHg 85%
    04:00 +13°C° 0 mm 3 m/s 651 mmHg 88%
    05:00 +13°C° 0 mm 3 m/s 651 mmHg 91%
    06:00 +14°C° 0 mm 3 m/s 651 mmHg 85%
    07:00 +15°C° 0 mm 4 m/s 652 mmHg 80%
    08:00 +16°C° 0 mm 5 m/s 652 mmHg 75%
    09:00 +19°C° 0 mm 5 m/s 653 mmHg 65%
    10:00 +22°C° 0 mm 5 m/s 653 mmHg 56%
    11:00 +25°C° 0 mm 5 m/s 654 mmHg 46%
    12:00 +27°C° 0 mm 5 m/s 654 mmHg 40%
    13:00 +28°C° 0 mm 5 m/s 653 mmHg 34%
    14:00 +29°C° 0 mm 5 m/s 653 mmHg 27%
    15:00 +29°C° 0 mm 5 m/s 652 mmHg 27%
    16:00 +29°C° 0 mm 5 m/s 652 mmHg 27%
    17:00 +29°C° 0 mm 5 m/s 651 mmHg 27%
    18:00 +26°C° 0 mm 5 m/s 651 mmHg 33%
    19:00 +23°C° 0 mm 4 m/s 651 mmHg 40%
    20:00 +21°C° 0 mm 4 m/s 651 mmHg 46%
    21:00 +20°C° 0 mm 4 m/s 651 mmHg 51%
    22:00 +19°C° 0 mm 3 m/s 651 mmHg 56%
    23:00 +18°C° 0 mm 3 m/s 651 mmHg 61%

    26 Februarie, Miercuri

    Timp Temperatura Precipitaţii Vânt Presiune Umiditate
    00:00 +18°C° 0 mm 3 m/s 651 mmHg 66%
    01:00 +17°C° 0 mm 3 m/s 650 mmHg 72%
    02:00 +17°C° 0 mm 2 m/s 650 mmHg 77%
    03:00 +16°C° 0 mm 2 m/s 650 mmHg 79%
    04:00 +16°C° 0 mm 2 m/s 650 mmHg 81%
    05:00 +15°C° 0 mm 2 m/s 650 mmHg 83%
    06:00 +17°C° 0 mm 2 m/s 650 mmHg 76%
    07:00 +18°C° 0 mm 3 m/s 651 mmHg 69%
    08:00 +19°C° 0 mm 4 m/s 652 mmHg 62%
    09:00 +21°C° 0 mm 4 m/s 652 mmHg 54%
    10:00 +23°C° 0 mm 4 m/s 653 mmHg 46%
    11:00 +26°C° 0 mm 4 m/s 653 mmHg 39%
    12:00 +27°C° 0 mm 4 m/s 653 mmHg 36%
    13:00 +28°C° 0 mm 5 m/s 652 mmHg 33%
    14:00 +29°C° 0 mm 6 m/s 652 mmHg 30%
    15:00 +28°C° 0 mm 5 m/s 652 mmHg 31%
    16:00 +27°C° 0 mm 4 m/s 651 mmHg 33%
    17:00 +26°C° 0 mm 4 m/s 650 mmHg 34%
    18:00 +25°C° 0 mm 3 m/s 650 mmHg 38%
    19:00 +22°C° 0 mm 3 m/s 650 mmHg 42%
    20:00 +21°C° 0 mm 3 m/s 650 mmHg 47%
    21:00 +21°C° 0 mm 2 m/s 650 mmHg 46%
    22:00 +20°C° 0 mm 2 m/s 650 mmHg 45%
    23:00 +20°C° 0 mm 2 m/s 650 mmHg 44%

    27 Februarie, Joi

    Timp Temperatura Precipitaţii Vânt Presiune Umiditate
    00:00 +20°C° 0 mm 2 m/s 650 mmHg 44%
    01:00 +20°C° 0 mm 2 m/s 650 mmHg 44%
    02:00 +21°C° 0 mm 2 m/s 650 mmHg 44%
    03:00 +21°C° 0 mm 2 m/s 650 mmHg 44%
    04:00 +22°C° 0 mm 1 m/s 650 mmHg 43%
    05:00 +22°C° 0 mm 1 m/s 650 mmHg 43%
    06:00 +22°C° 0 mm 1 m/s 650 mmHg 43%
    07:00 +22°C° 0 mm 1 m/s 651 mmHg 43%
    08:00 +21°C° 0 mm 0 m/s 651 mmHg 43%
    09:00 +24°C° 0 mm 1 m/s 651 mmHg 41%
    10:00 +25°C° 0 mm 1 m/s 652 mmHg 38%
    11:00 +26°C° 0 mm 2 m/s 652 mmHg 35%
    12:00 +28°C° 0 mm 2 m/s 652 mmHg 32%
    13:00 +29°C° 0 mm 3 m/s 652 mmHg 29%
    14:00 +32°C° 0 mm 4 m/s 652 mmHg 26%
    15:00 +32°C° 0 mm 4 m/s 651 mmHg 28%
    16:00 +30°C° 0 mm 4 m/s 651 mmHg 31%
    17:00 +30°C° 0 mm 4 m/s 650 mmHg 33%
    18:00 +28°C° 0.1 mm 3 m/s 650 mmHg 39%
    19:00 +26°C° 0.1 mm 3 m/s 650 mmHg 45%
    20:00 +25°C° 0.1 mm 2 m/s 650 mmHg 51%
    21:00 +24°C° 0.2 mm 2 m/s 650 mmHg 58%
    22:00 +23°C° 0.2 mm 2 m/s 650 mmHg 65%
    23:00 +21°C° 0.2 mm 2 m/s 650 mmHg 72%
    Arată mai mult